[[{"header":{"parameterUnit":"m.s-1","parameterCategory":1,"la1":30.2991,"la2":30.254,"lo1":-89.0895,"lo2":-89.0444,"dy":0.0017,"dx":0.0017,"nx":28,"ny":28,"refTime":"2024-06-10T21:00:00:Z","depth":0,"parameterNumber":2,"parameterNumberName":"U-component_of_WINDS"},"data":[0,0,0,0,0,0,0,0,0,0,0,0,0,0,0,0,0,0,0,0,0,0,0,0,0,0,0,0,0,0,0,0,0,0,0,0,0,0,0,0,0,0,0,0,0,0,0,0,0,0,0,0,0,0,0,0,0,0,1.493,1.4932,0,1.509,1.5092,1.5093,1.5107,1.5105,1.5103,1.5102,1.5268,1.5274,1.528,0,0,0,0,0,0,0,0,0,0,0,0,0,1.4639,1.4644,1.493,1.4932,1.4934,1.509,1.5092,1.5094,1.5107,1.5105,1.5103,1.5101,1.5266,1.5273,1.5281,0,0,0,0,0,0,0,0,0,0,0,0,0,1.4778,1.4646,1.493,1.4959,1.4963,1.5089,1.5092,1.5095,1.5108,1.5105,1.5102,1.51,1.5264,1.5273,1.5282,1.539,0,0,1.5309,1.5313,0,0,0,0,0,0,0,0,1.4771,1.4789,1.4953,1.4957,1.4962,1.5076,1.505,1.5194,1.5108,1.5053,1.5102,1.5099,1.5206,1.522,1.5256,1.5397,1.5405,1.531,1.5316,1.532,1.5322,0,0,0,0,0,0,0,1.4761,1.4782,1.4993,1.4955,1.4961,1.4965,1.4982,1.5077,1.5142,1.5058,1.5059,1.5077,1.5209,1.5247,1.526,1.5407,1.531,1.5318,1.5324,1.5327,1.5645,1.5648,0,0,0,0,0,0,1.4745,1.4774,1.4988,1.4998,1.4858,1.4973,1.4992,1.5042,1.5141,1.5154,1.5079,1.5077,1.5233,1.5249,1.5266,1.5398,1.532,1.5328,1.5333,1.5642,1.5645,1.5649,0,0,0,0,0,0,1.4739,1.4764,1.4982,1.4887,1.4915,1.498,1.5037,1.5046,1.5085,1.5158,1.517,1.5107,1.5231,1.5253,1.5358,1.5404,1.5332,1.534,1.5638,1.5643,1.5647,1.5664,0,0,0,0,0,0,1.473,1.4762,1.4803,1.4887,1.492,1.5071,1.504,1.5051,1.51,1.5099,1.5187,1.5199,1.5231,1.5345,1.5367,1.5416,1.5347,1.5634,1.564,1.5646,1.566,1.5669,1.5677,0,0,0,0,0,1.472,1.4802,1.4805,1.4831,1.4972,1.5074,1.5092,1.5127,1.5104,1.5146,1.5193,1.5196,1.5395,1.5355,1.5381,1.5433,1.5632,1.5639,1.5645,1.5656,1.5667,1.5676,0,0,0,0,0,0,1.4723,1.4814,1.4818,1.493,1.4994,1.5076,1.513,1.5137,1.521,1.5206,1.5247,1.5267,1.5371,1.5412,1.5366,1.5542,1.5511,1.5523,1.5511,1.5522,1.553,1.5518,1.5355,0,0,0,0,0,1.4736,1.481,1.4886,1.4978,1.5009,1.5064,1.511,1.5131,1.5199,1.5226,1.5281,1.5348,1.5426,1.5476,1.5552,1.5666,1.5685,1.5714,1.5722,1.5729,1.5739,1.5802,1.5816,1.5671,1.5671,1.5671,0,0,1.4765,1.4824,1.4869,1.498,1.5032,1.5108,1.5087,1.5169,1.5226,1.5239,1.5342,1.5384,1.5461,1.5571,1.5623,1.5609,1.5783,1.5737,1.5742,1.5749,1.581,1.5824,1.5836,1.5675,1.5675,1.5674,0,0,1.4857,1.4909,1.4991,1.5043,1.5121,1.5157,1.5176,1.5257,1.5286,1.5389,1.54,1.5469,1.5602,1.5657,1.5702,1.5813,1.5819,1.5837,1.588,1.5941,1.5952,1.5963,1.6002,1.6016,1.5846,1.5847,1.5847,0,1.4883,1.4998,1.5032,1.5113,1.5161,1.5176,1.5259,1.5308,1.5408,1.5441,1.5425,1.5591,1.5645,1.5767,1.5794,1.5831,1.5854,1.5827,1.5948,1.5958,1.5969,1.6007,1.6021,1.5848,1.5848,1.5848,1.5848,0,1.5026,1.5105,1.5162,1.5256,1.5311,1.5393,1.544,1.5492,1.5508,1.5545,1.565,1.5714,1.5803,1.5833,1.5851,1.5959,1.5948,1.5939,1.5909,1.5983,1.602,1.6035,1.5851,1.585,1.5849,1.5849,0,0,1.5125,1.5236,1.5256,1.5299,1.5386,1.5449,1.5531,1.5616,1.566,1.5728,1.5798,1.591,1.5902,1.5953,1.5976,1.603,1.6114,1.6015,1.6017,1.6031,1.6236,1.6242,1.6259,1.6117,1.612,1.6123,1.623,0,1.5226,1.5372,1.5405,1.5531,1.5604,1.5618,1.569,1.5752,1.5789,1.5857,1.5899,1.5977,1.5961,1.5992,1.6045,1.6092,1.6155,1.6085,1.6184,1.6187,1.6164,1.6278,1.6285,1.6383,1.6244,1.6247,1.6249,0,1.5364,1.5434,1.5567,1.5643,1.5675,1.5739,1.582,1.5885,1.5955,1.5978,1.6035,1.6052,1.6139,1.6104,1.6224,1.6176,1.6218,1.6247,1.6252,1.6262,1.6222,1.6292,1.6415,1.643,1.6271,1.627,1.6268,0,1.5422,1.555,1.5645,1.5682,1.5774,1.5818,1.5859,1.5926,1.5975,1.6046,1.6078,1.6158,1.6202,1.6264,1.6303,1.6274,1.642,1.6389,1.6443,1.6442,1.6473,1.6471,1.6605,1.65,1.65,1.65,1.6499,0,1.5532,1.5613,1.5673,1.5731,1.5822,1.5859,1.5948,1.5989,1.6049,1.6116,1.6134,1.6197,1.6244,1.6314,1.6346,1.644,1.646,1.6482,1.6489,1.648,1.6477,1.6509,1.6503,1.6504,1.6503,1.6502,1.6501,0,1.5613,1.5656,1.5761,1.5839,1.5861,1.5924,1.5991,1.6049,1.6086,1.6171,1.6194,1.6252,1.6335,1.638,1.6485,1.6505,1.6611,1.6615,1.6587,1.659,1.6641,1.6636,1.6801,1.6824,1.6704,1.6705,1.6706,0,1.568,1.5742,1.5826,1.5872,1.5913,1.5987,1.6037,1.6075,1.6126,1.621,1.6258,1.6342,1.6411,1.6543,1.6596,1.6676,1.6681,1.6734,1.6694,1.6683,1.6682,1.6678,1.6684,1.6741,1.6742,1.6743,1.6743,0,1.5795,1.5812,1.5883,1.5961,1.6019,1.6083,1.6146,1.6182,1.6231,1.6288,1.6372,1.6426,1.6532,1.6615,1.6698,1.6741,1.6751,1.6755,1.6772,1.6764,1.6745,1.6756,1.6606,1.6752,1.6751,1.675,1.675,1.6749,1.5871,1.5926,1.5994,1.6072,1.6123,1.6181,1.6239,1.6282,1.6353,1.6441,1.646,1.6549,1.6618,1.6731,1.6776,1.6846,1.6836,1.686,1.6867,1.6872,1.6874,1.6733,1.6862,1.6862,1.6862,1.6861,1.6861,0,1.5986,1.603,1.6101,1.6187,1.6249,1.6251,1.632,1.6372,1.6449,1.6512,1.6579,1.6676,1.6756,1.6814,1.6896,1.6942,1.6948,1.6962,1.6959,1.6969,1.6878,1.6856,1.6955,1.6955,1.6955,1.6955,1.6955,1.6955,1.6053,1.6147,1.6173,1.6293,1.6336,1.6423,1.6462,1.6516,1.6566,1.6673,1.6739,1.6776,1.6837,1.6923,1.6997,1.7012,1.7042,1.7055,1.7071,1.6985,1.6975,1.6966,1.6945,1.7061,1.7061,1.7155,1.7156,1.7157]},{"header":{"parameterUnit":"m.s-1","parameterCategory":1,"la1":30.2991,"la2":30.254,"lo1":-89.0895,"lo2":-89.0444,"dy":0.0017,"dx":0.0017,"nx":28,"ny":28,"refTime":"2024-06-10T21:00:00:Z","depth":0,"parameterNumber":3,"parameterNumberName":"V-component_of_WINDS"},"data":[0,0,0,0,0,0,0,0,0,0,0,0,0,0,0,0,0,0,0,0,0,0,0,0,0,0,0,0,0,0,0,0,0,0,0,0,0,0,0,0,0,0,0,0,0,0,0,0,0,0,0,0,0,0,0,0,0,0,2.3448,2.3448,0,2.3489,2.349,2.349,2.3429,2.3427,2.3424,2.3422,2.3461,2.3464,2.3467,0,0,0,0,0,0,0,0,0,0,0,0,0,2.3312,2.3315,2.3448,2.3449,2.3449,2.3489,2.349,2.349,2.3429,2.3427,2.3424,2.3422,2.346,2.3464,2.3467,0,0,0,0,0,0,0,0,0,0,0,0,0,2.3364,2.3316,2.3448,2.3424,2.3422,2.3489,2.349,2.349,2.343,2.3426,2.3423,2.342,2.3459,2.3463,2.3468,2.356,0,0,2.3482,2.3484,0,0,0,0,0,0,0,0,2.3361,2.3369,2.3427,2.3425,2.3423,2.3451,2.3456,2.3513,2.343,2.3427,2.3422,2.3419,2.346,2.3464,2.3479,2.3562,2.3563,2.3482,2.3485,2.3487,2.3488,0,0,0,0,0,0,0,2.3358,2.3367,2.3464,2.3427,2.3426,2.3409,2.3413,2.3467,2.3461,2.3427,2.3422,2.3428,2.3459,2.3475,2.3479,2.3564,2.3482,2.3486,2.3489,2.3491,2.3723,2.3726,0,0,0,0,0,0,2.3358,2.3365,2.3463,2.3465,2.3384,2.3414,2.3418,2.3445,2.346,2.3459,2.3431,2.3425,2.3469,2.3474,2.348,2.3589,2.3487,2.3491,2.3494,2.3719,2.3724,2.3727,0,0,0,0,0,0,2.3355,2.3367,2.3461,2.3414,2.3425,2.342,2.345,2.3448,2.3464,2.3463,2.3461,2.3449,2.3466,2.3474,2.3541,2.3589,2.3493,2.3497,2.3715,2.3721,2.3725,2.3806,0,0,0,0,0,0,2.3351,2.3367,2.3403,2.3415,2.3427,2.3522,2.3453,2.3451,2.3472,2.3465,2.348,2.3479,2.3464,2.3534,2.3545,2.3594,2.3501,2.3711,2.3718,2.3724,2.3799,2.3813,2.3826,0,0,0,0,0,2.3347,2.3423,2.3405,2.3417,2.3473,2.3525,2.3532,2.3515,2.3476,2.3512,2.3511,2.3478,2.3582,2.3541,2.3553,2.3604,2.3708,2.3716,2.3723,2.3793,2.3811,2.3825,0,0,0,0,0,0,2.3415,2.3424,2.3404,2.3487,2.3506,2.3515,2.3559,2.3534,2.3563,2.3555,2.3531,2.3535,2.3606,2.3611,2.3566,2.3693,2.3638,2.3649,2.3687,2.3704,2.3717,2.3714,2.3505,0,0,0,0,0,2.344,2.3484,2.3488,2.3561,2.3572,2.3564,2.3586,2.3571,2.3589,2.3597,2.3601,2.3619,2.3655,2.368,2.3713,2.3799,2.3801,2.384,2.3853,2.3864,2.3873,2.3918,2.3935,2.3753,2.3753,2.3753,0,0,2.3492,2.3502,2.3531,2.3575,2.3588,2.3632,2.3571,2.362,2.3652,2.3604,2.3667,2.3671,2.3689,2.3765,2.3799,2.3772,2.3924,2.3874,2.3883,2.3886,2.3928,2.3945,2.3961,2.3758,2.3757,2.3756,0,0,2.3609,2.3621,2.3683,2.3697,2.3718,2.3712,2.3727,2.3739,2.374,2.3803,2.3768,2.3804,2.3868,2.3882,2.3898,2.4019,2.3989,2.403,2.41,2.4144,2.4158,2.4171,2.4214,2.4229,2.4039,2.404,2.404,0,2.367,2.3737,2.3717,2.3769,2.3789,2.3748,2.3809,2.3824,2.3854,2.3868,2.3837,2.3915,2.3924,2.4003,2.4033,2.4047,2.4062,2.4029,2.4158,2.417,2.4182,2.4222,2.4239,2.4044,2.4044,2.4043,2.4043,0,2.3811,2.3857,2.3904,2.3935,2.396,2.4017,2.4005,2.4032,2.4015,2.4012,2.4076,2.4085,2.412,2.4137,2.412,2.4214,2.4196,2.4162,2.4106,2.4204,2.4242,2.4257,2.4051,2.405,2.4048,2.4047,0,0,2.3973,2.3992,2.401,2.4023,2.4042,2.4077,2.413,2.4165,2.4189,2.421,2.4254,2.4308,2.4277,2.4295,2.4279,2.4318,2.4412,2.4278,2.4278,2.4303,2.4515,2.454,2.4559,2.4393,2.4395,2.4398,2.4513,0,2.4089,2.4183,2.4167,2.4258,2.43,2.4261,2.4307,2.4323,2.4322,2.4356,2.4353,2.4392,2.4348,2.4358,2.4394,2.4393,2.4454,2.4384,2.4432,2.4434,2.4429,2.4579,2.4606,2.4715,2.4528,2.453,2.4532,0,2.4238,2.4266,2.4362,2.4373,2.439,2.4433,2.4463,2.4496,2.4513,2.4508,2.4528,2.4505,2.4557,2.45,2.4571,2.4524,2.4542,2.4544,2.4548,2.4552,2.4489,2.4586,2.4749,2.4765,2.4555,2.4553,2.4551,0,2.4346,2.4408,2.4473,2.4485,2.4501,2.4531,2.4539,2.4552,2.4574,2.4599,2.4613,2.4644,2.4661,2.4685,2.467,2.463,2.4743,2.4685,2.474,2.4741,2.4766,2.4765,2.4934,2.4778,2.4778,2.4777,2.4777,0,2.4478,2.4538,2.4521,2.4562,2.4627,2.4607,2.4672,2.4674,2.4687,2.4725,2.4693,2.4729,2.4707,2.4742,2.473,2.479,2.4798,2.4795,2.4792,2.4799,2.4799,2.4811,2.4803,2.4781,2.4781,2.478,2.4779,0,2.461,2.4602,2.467,2.4679,2.4683,2.4731,2.4737,2.4774,2.4769,2.4819,2.4829,2.4822,2.4861,2.4848,2.489,2.4882,2.4958,2.4944,2.4953,2.495,2.5005,2.5,2.5188,2.5211,2.504,2.5042,2.5043,0,2.4695,2.4741,2.4754,2.4779,2.4789,2.4828,2.485,2.4831,2.4855,2.4877,2.4911,2.4947,2.4975,2.5039,2.5037,2.5068,2.5055,2.5118,2.5059,2.5065,2.5056,2.5053,2.5058,2.513,2.5132,2.5134,2.5135,0,2.4847,2.484,2.4874,2.4906,2.4933,2.4957,2.4978,2.4999,2.4982,2.501,2.505,2.5072,2.5114,2.5151,2.5179,2.5185,2.5157,2.5154,2.5168,2.5176,2.5179,2.5178,2.4985,2.515,2.5148,2.5147,2.5146,2.5146,2.4958,2.4996,2.5012,2.505,2.5064,2.5084,2.5119,2.5119,2.5152,2.5186,2.5172,2.5218,2.5232,2.5267,2.5277,2.5312,2.5287,2.5308,2.5313,2.5319,2.5326,2.5173,2.5317,2.5316,2.5316,2.5316,2.5315,0,2.5107,2.5115,2.5151,2.5182,2.5211,2.5183,2.5204,2.5231,2.5272,2.5288,2.5316,2.5362,2.5396,2.5396,2.5428,2.5456,2.5444,2.5465,2.5463,2.5465,2.5346,2.5331,2.5474,2.5474,2.5474,2.5474,2.5474,2.5474,2.5189,2.5252,2.5247,2.5316,2.5323,2.5369,2.5383,2.5401,2.5414,2.5466,2.5495,2.5495,2.5504,2.5537,2.5567,2.5566,2.5579,2.5605,2.5599,2.5489,2.5473,2.5458,2.5443,2.5608,2.5608,2.5714,2.5715,2.5716]}]]